Weather History for KTRM - September, 2012

Change the Weather History Date:

Tuesday, September 18, 2012

  Actual Average Record
Temperature  
Mean Temperature 88 °F 83 °F  
Max Temperature 104 °F 101 °F 114 °F (1956)
Min Temperature 72 °F 66 °F 51 °F (2006)
Degree Days  
Heating Degree Days 0 0  
Month to date heating degree days 0 0  
Since 1 July heating degree days 0 0  
Cooling Degree Days 23 18  
Month to date cooling degree days 426 376  
Year to date cooling degree days 3596 3209  
Growing Degree Days 38 (Base 50)    
Moisture  
Dew Point 51 °F    
Average Humidity 27    
Maximum Humidity 41    
Minimum Humidity 13    
Precipitation  
Precipitation 0.00 in 0.01 in 0.28 in (1963)
Month to date precipitation 1.42 0.15  
Year to date precipitation 2.40 2.30  
Since 1 July precipitation 2.04 0.48  
Snow  
Snow 0.00 in - - ()
Month to date snowfall 0.0  
Year to date snowfall 0.0  
Since 1 July snowfall 0.0  
Snow Depth 0.00 in    
Sea Level Pressure  
Sea Level Pressure 29.85 in    
Wind  
Wind Speed 6 mph (East)    
Max Wind Speed 14 mph    
Max Gust Speed 20 mph    
Visibility 10 miles    
Events      
T = Trace of Precipitation, MM = Missing Value Source: NWS Daily Summary

Daily Weather History Graph

Daily Weather History Graph

Search for Another Location

Airport or City:

Trip Planner

Search our weather history database for the weather conditions in past years. The results will help you decide how hot, cold, wet, or windy it might be!

Date:

Astronomy

Sep. 18, 2012 Rise Set
Actual Time 6:30 AM PDT 6:46 PM PDT
Civil Twilight 6:05 AM PDT 7:10 PM PDT
Nautical Twilight 5:36 AM PDT 7:40 PM PDT
Astronomical Twilight 5:06 AM PDT 8:09 PM PDT
Moon 9:23 AM PDT (9/18) 8:25 PM PDT (9/18)
Length of Visible Light 13h 05m
Length of Day
12h 15m
Waxing Crescent, 10% of the Moon is Illuminated
Sep 18
Waxing Crescent
Sep 22
First Quarter
Sep 29
Full
Oct 8
Last Quarter
Oct 15
New

Hourly Weather History & Observations

Time (PDT) Temp. Heat Index Dew Point Humidity Pressure Visibility Wind Dir Wind Speed Gust Speed Precip Events Conditions
12:52 AM 88.0 °F - 45.0 °F 22% 29.83 in 10.0 mi NNW 12.7 mph - N/A   Clear
2:52 AM 86.0 °F - 44.1 °F 23% 29.83 in 10.0 mi WNW 9.2 mph - N/A   Clear
3:52 AM 84.9 °F - 44.1 °F 24% 29.83 in 10.0 mi NNW 8.1 mph - N/A   Clear
5:52 AM 80.1 °F - 45.0 °F 29% 29.86 in 10.0 mi NNW 4.6 mph - N/A   Clear
6:52 AM 73.0 °F - 48.0 °F 41% 29.87 in 10.0 mi SSE 9.2 mph - N/A   Clear
7:52 AM 82.0 °F - 48.0 °F 30% 29.88 in 10.0 mi NW 4.6 mph - N/A   Clear
8:52 AM 89.1 °F - 46.9 °F 23% 29.91 in 10.0 mi NNE 4.6 mph - N/A   Clear
9:52 AM 91.0 °F - 51.1 °F 25% 29.91 in 10.0 mi Variable 3.5 mph - N/A   Clear
10:52 AM 93.0 °F 92.0 °F 57.9 °F 31% 29.91 in 10.0 mi Calm Calm - N/A   Clear
11:52 AM 99.0 °F 96.9 °F 54.0 °F 22% 29.90 in 10.0 mi Calm Calm - N/A   Clear
12:52 PM 100.0 °F 97.9 °F 54.0 °F 21% 29.88 in 10.0 mi ESE 6.9 mph - N/A   Clear
1:52 PM 102.0 °F - 48.0 °F 16% 29.84 in 10.0 mi SSE 5.8 mph - N/A   Clear
2:52 PM 102.9 °F - 45.0 °F 14% 29.82 in 10.0 mi SE 10.4 mph - N/A   Clear
3:52 PM 102.9 °F - 43.0 °F 13% 29.80 in 10.0 mi SE 10.4 mph - N/A   Clear
4:52 PM 102.0 °F - 45.0 °F 14% 29.79 in 10.0 mi SE 6.9 mph - N/A   Clear
5:52 PM 98.1 °F - 48.0 °F 18% 29.79 in 10.0 mi SE 8.1 mph - N/A   Clear
6:52 PM 91.0 °F 89.7 °F 57.0 °F 32% 29.79 in 10.0 mi SSE 4.6 mph - N/A   Clear
7:52 PM 87.1 °F 86.7 °F 60.1 °F 40% 29.81 in 10.0 mi SSE 3.5 mph - N/A   Clear
8:52 PM 86.0 °F 86.3 °F 62.1 °F 44% 29.83 in 10.0 mi NW 3.5 mph - N/A   Clear
9:52 PM 82.0 °F 83.0 °F 62.1 °F 51% 29.86 in 10.0 mi NW 5.8 mph - N/A   Clear
10:52 PM 80.1 °F 80.9 °F 60.1 °F 50% 29.87 in 10.0 mi Calm Calm - N/A   Clear
11:52 PM 84.0 °F 82.5 °F 53.1 °F 34% 29.85 in 10.0 mi North 5.8 mph - N/A   Clear